LOT327 EPWA-LIPE

Flight info

Callsign LOT327
Flight time N/A
Altitude 34000
Route EVINA N744 NAVUR DCT TUSIN DCT MIKOV DCT DETSA/N0444F350 DCT ADOSA/N0367F190 M738 BENUS
Aircraft B38M/M-SDE1FGHILORVWXY/HB1

Departure

Time N/A
Airport Warsaw Chopin Airport (EPWA)

Arrival

Time 2026-05-01 08:01
Airport Bologna Guglielmo Marconi Airport (LIPE)
Time Latitude Longitude Altitude Speed Heading
2026-05-01 07:23 47.86217 14.51509 34406 ft 506 kts 239°
2026-05-01 07:24 47.80275 14.38489 34391 ft 506 kts 239°
2026-05-01 07:24 47.76317 14.29850 34382 ft 506 kts 239°
2026-05-01 07:25 47.72342 14.21204 34420 ft 506 kts 239°
2026-05-01 07:25 47.68387 14.12628 34422 ft 506 kts 238°
2026-05-01 07:26 47.64401 14.04008 34403 ft 506 kts 238°
2026-05-01 07:26 47.60411 13.95411 34422 ft 506 kts 238°
2026-05-01 07:27 47.56408 13.86810 34405 ft 506 kts 238°
2026-05-01 07:27 47.52409 13.78246 34401 ft 505 kts 238°
2026-05-01 07:28 47.48433 13.69757 34398 ft 505 kts 238°
2026-05-01 07:28 47.44428 13.61232 34384 ft 504 kts 238°
2026-05-01 07:29 47.40419 13.52726 34385 ft 504 kts 238°
2026-05-01 07:29 47.36412 13.44251 34398 ft 504 kts 238°
2026-05-01 07:30 47.32391 13.35772 34393 ft 504 kts 238°
2026-05-01 07:30 47.28402 13.27385 34402 ft 503 kts 238°
2026-05-01 07:31 47.24369 13.18930 34364 ft 503 kts 238°
2026-05-01 07:32 47.14285 12.97909 34353 ft 503 kts 238°
2026-05-01 07:33 47.08219 12.85339 34355 ft 503 kts 238°
2026-05-01 07:33 47.02146 12.72812 34342 ft 502 kts 238°
2026-05-01 07:34 46.96062 12.60312 34355 ft 502 kts 237°
2026-05-01 07:35 46.92023 12.52040 34373 ft 503 kts 237°
2026-05-01 07:35 46.87951 12.43728 34369 ft 502 kts 237°
2026-05-01 07:36 46.83881 12.35440 34393 ft 502 kts 237°
2026-05-01 07:36 46.79538 12.27485 34386 ft 504 kts 222°
2026-05-01 07:37 46.71206 12.18069 34411 ft 506 kts 218°
2026-05-01 07:37 46.65591 12.11848 34406 ft 507 kts 218°
2026-05-01 07:38 46.60924 12.06695 34395 ft 507 kts 218°
2026-05-01 07:39 46.51572 11.96402 34390 ft 508 kts 218°
2026-05-01 07:39 46.43115 11.87133 34379 ft 507 kts 217°
2026-05-01 07:40 46.38390 11.81970 34371 ft 508 kts 218°
2026-05-01 07:40 46.32782 11.75857 34373 ft 508 kts 217°
2026-05-01 07:41 46.27123 11.69710 34384 ft 509 kts 217°
2026-05-01 07:41 46.20701 11.65788 33148 ft 500 kts 182°
2026-05-01 07:42 46.17245 11.65133 32707 ft 503 kts 188°
2026-05-01 07:42 46.13815 11.64100 32160 ft 501 kts 188°
2026-05-01 07:42 46.10420 11.63055 31566 ft 497 kts 188°
2026-05-01 07:42 46.07061 11.62009 31015 ft 492 kts 188°
2026-05-01 07:43 46.03731 11.60969 30514 ft 488 kts 188°
2026-05-01 07:43 46.00414 11.59932 29842 ft 486 kts 188°
2026-05-01 07:43 45.93861 11.57890 28748 ft 477 kts 188°
2026-05-01 07:44 45.87440 11.55895 27690 ft 467 kts 188°
2026-05-01 07:44 45.81181 11.53952 26625 ft 460 kts 188°
2026-05-01 07:45 45.78056 11.52984 26089 ft 456 kts 188°
2026-05-01 07:45 45.74968 11.52029 25574 ft 453 kts 188°
2026-05-01 07:45 45.71903 11.51082 25057 ft 450 kts 187°
2026-05-01 07:45 45.68848 11.50139 24541 ft 447 kts 187°
2026-05-01 07:46 45.65816 11.49204 24027 ft 444 kts 187°
2026-05-01 07:46 45.62803 11.48274 23431 ft 442 kts 187°
2026-05-01 07:46 45.56844 11.46441 22402 ft 433 kts 188°
2026-05-01 07:47 45.53915 11.45542 21907 ft 429 kts 188°
2026-05-01 07:47 45.51013 11.44652 21414 ft 424 kts 188°
2026-05-01 07:47 45.48137 11.43771 20921 ft 421 kts 188°
2026-05-01 07:47 45.45289 11.42899 20354 ft 419 kts 189°
2026-05-01 07:48 45.39511 11.41126 18359 ft 435 kts 190°
2026-05-01 07:48 45.36549 11.40221 17245 ft 436 kts 190°
2026-05-01 07:48 45.33588 11.39317 16218 ft 432 kts 190°
2026-05-01 07:49 45.30687 11.38318 15279 ft 427 kts 193°
2026-05-01 07:49 45.25214 11.36254 14696 ft 403 kts 193°
2026-05-01 07:49 45.22437 11.35226 14384 ft 397 kts 193°
2026-05-01 07:50 45.19768 11.34241 14062 ft 396 kts 193°
2026-05-01 07:50 45.14458 11.32286 13373 ft 391 kts 193°
2026-05-01 07:50 45.11830 11.31321 12993 ft 387 kts 193°
2026-05-01 07:51 45.09259 11.30377 12475 ft 376 kts 193°
2026-05-01 07:51 45.06764 11.29462 11974 ft 365 kts 193°
2026-05-01 07:51 45.04343 11.28575 11497 ft 355 kts 193°
2026-05-01 07:52 44.99703 11.26876 10592 ft 337 kts 193°
2026-05-01 07:52 44.97459 11.26056 10144 ft 329 kts 193°
2026-05-01 07:52 44.95265 11.25254 9671 ft 322 kts 193°
2026-05-01 07:53 44.91037 11.23711 8837 ft 307 kts 193°
2026-05-01 07:53 44.88976 11.22959 8437 ft 306 kts 193°
2026-05-01 07:53 44.86917 11.22210 8029 ft 305 kts 193°
2026-05-01 07:53 44.84872 11.21465 7633 ft 302 kts 193°
2026-05-01 07:54 44.80922 11.20030 6756 ft 287 kts 193°
2026-05-01 07:55 44.75268 11.17978 5342 ft 267 kts 192°
2026-05-01 07:55 44.71772 11.16710 4606 ft 251 kts 192°
2026-05-01 07:56 44.66965 11.14971 3628 ft 231 kts 192°
2026-05-01 07:56 44.64003 11.13893 3050 ft 209 kts 193°
2026-05-01 07:57 44.62624 11.13400 2795 ft 202 kts 192°
2026-05-01 07:57 44.59982 11.13169 2341 ft 182 kts 149°
2026-05-01 07:58 44.58265 11.15688 1956 ft 178 kts 114°
2026-05-01 07:58 44.57221 11.18636 1584 ft 157 kts 116°
2026-05-01 07:59 44.56311 11.21163 1203 ft 140 kts 115°
2026-05-01 07:59 44.55448 11.23597 798 ft 138 kts 117°
2026-05-01 08:00 44.53675 11.28502 132 ft 132 kts 116°
2026-05-01 08:01 44.53214 11.29529 133 ft 9 kts 263°
2026-05-01 08:01 44.53210 11.29427 133 ft 12 kts 267°
2026-05-01 08:01 44.53206 11.29304 133 ft 11 kts 267°
2026-05-01 08:02 44.53272 11.29074 133 ft 16 kts 297°
2026-05-01 08:02 44.53328 11.28918 133 ft 19 kts 297°
2026-05-01 08:03 44.53419 11.28666 132 ft 7 kts 296°
2026-05-01 08:03 44.53415 11.28611 133 ft 6 kts 212°
2026-05-01 08:03 44.53365 11.28649 133 ft 3 kts 181°
2026-05-01 08:04 44.53325 11.28623 133 ft 1 kts 207°
2026-05-01 08:04 44.53322 11.28621 133 ft 0 kts 207°